When you browse on this site, cookies collect data to enhance your experience and personalize the content and advertising you see.
Visit our Privacy Policy to learn more. By continuing to use the site, you agree to this use of cookies and data.

Meteo pe oră la Dziadkowice

Astăzi, 26 Septembrie, Sâmbătă

Timp Temperatura Precipitaţii Vânt Presiune Umiditate
00:00 +16°C° 0 mm 1 m/s 730 mmHg 95%
01:00 +15°C° 0 mm 1 m/s 729 mmHg 92%
02:00 +15°C° 0.5 mm 2 m/s 729 mmHg 93%
03:00 +15°C° 0.5 mm 2 m/s 728 mmHg 94%
04:00 +16°C° 0.5 mm 2 m/s 728 mmHg 95%
05:00 +16°C° 0.6 mm 3 m/s 727 mmHg 92%
06:00 +17°C° 0.6 mm 4 m/s 727 mmHg 89%
07:00 +17°C° 0 mm 4 m/s 727 mmHg 84%
08:00 +19°C° 0 mm 5 m/s 727 mmHg 77%
09:00 +20°C° 0 mm 6 m/s 727 mmHg 70%
10:00 +22°C° 0 mm 7 m/s 726 mmHg 63%
11:00 +20°C° 0.5 mm 7 m/s 727 mmHg 69%
12:00 +19°C° 0.5 mm 6 m/s 727 mmHg 75%
13:00 +17°C° 0.5 mm 6 m/s 727 mmHg 81%
14:00 +17°C° 0.1 mm 6 m/s 727 mmHg 76%
15:00 +16°C° 0.1 mm 6 m/s 728 mmHg 72%
16:00 +16°C° 0.1 mm 5 m/s 729 mmHg 67%
17:00 +15°C° 0 mm 5 m/s 729 mmHg 70%
18:00 +14°C° 0 mm 5 m/s 730 mmHg 73%
19:00 +13°C° 0 mm 4 m/s 731 mmHg 76%
20:00 +12°C° 0 mm 4 m/s 731 mmHg 75%
21:00 +12°C° 0 mm 4 m/s 732 mmHg 74%
22:00 +11°C° 0 mm 3 m/s 732 mmHg 73%
23:00 +11°C° 0.8 mm 4 m/s 732 mmHg 78%

Mâine, 27 Septembrie, Duminică

Timp Temperatura Precipitaţii Vânt Presiune Umiditate
00:00 +10°C° 0.8 mm 4 m/s 732 mmHg 83%
01:00 +10°C° 0.8 mm 4 m/s 732 mmHg 88%
02:00 +9°C° 2.2 mm 5 m/s 732 mmHg 89%
03:00 +8°C° 2.2 mm 5 m/s 732 mmHg 90%
04:00 +8°C° 2.2 mm 6 m/s 732 mmHg 91%
05:00 +8°C° 1.3 mm 6 m/s 732 mmHg 91%
06:00 +8°C° 1.3 mm 6 m/s 732 mmHg 91%
07:00 +8°C° 1.3 mm 6 m/s 732 mmHg 91%
08:00 +8°C° 2.4 mm 7 m/s 732 mmHg 91%
09:00 +8°C° 2.4 mm 7 m/s 732 mmHg 91%
10:00 +6°C° 2.4 mm 7 m/s 733 mmHg 91%
11:00 +8°C° 0.7 mm 7 m/s 733 mmHg 89%
12:00 +8°C° 0.7 mm 7 m/s 733 mmHg 88%
13:00 +8°C° 0.7 mm 7 m/s 734 mmHg 87%
14:00 +8°C° 0.6 mm 6 m/s 734 mmHg 87%
15:00 +8°C° 0.6 mm 6 m/s 735 mmHg 87%
16:00 +9°C° 0.6 mm 6 m/s 735 mmHg 87%
17:00 +9°C° 0.9 mm 5 m/s 736 mmHg 87%
18:00 +9°C° 0.9 mm 5 m/s 736 mmHg 88%
19:00 +9°C° 0.9 mm 5 m/s 737 mmHg 88%
20:00 +10°C° 0.5 mm 4 m/s 738 mmHg 88%
21:00 +10°C° 0.5 mm 4 m/s 739 mmHg 87%
22:00 +10°C° 0.5 mm 4 m/s 739 mmHg 87%
23:00 +10°C° 0 mm 4 m/s 739 mmHg 88%

Poimâine, 28 Septembrie, Luni

Timp Temperatura Precipitaţii Vânt Presiune Umiditate
00:00 +9°C° 0 mm 3 m/s 739 mmHg 88%
01:00 +9°C° 0 mm 3 m/s 739 mmHg 89%
02:00 +8°C° 0 mm 3 m/s 740 mmHg 88%
03:00 +7°C° 0 mm 4 m/s 740 mmHg 86%
04:00 +7°C° 0 mm 4 m/s 740 mmHg 85%
05:00 +7°C° 0 mm 4 m/s 741 mmHg 83%
06:00 +8°C° 0 mm 4 m/s 741 mmHg 81%
07:00 +8°C° 0 mm 5 m/s 741 mmHg 79%
08:00 +10°C° 0 mm 5 m/s 741 mmHg 71%
09:00 +13°C° 0 mm 5 m/s 741 mmHg 64%
10:00 +15°C° 0 mm 4 m/s 742 mmHg 56%
11:00 +15°C° 0 mm 4 m/s 742 mmHg 57%
12:00 +14°C° 0 mm 4 m/s 741 mmHg 58%
13:00 +14°C° 0 mm 4 m/s 741 mmHg 59%
14:00 +14°C° 0 mm 3 m/s 741 mmHg 65%
15:00 +14°C° 0 mm 2 m/s 741 mmHg 70%
16:00 +13°C° 0 mm 1 m/s 741 mmHg 75%
17:00 +13°C° 0 mm 1 m/s 741 mmHg 75%
18:00 +13°C° 0 mm 2 m/s 741 mmHg 74%
19:00 +13°C° 0 mm 2 m/s 741 mmHg 73%
20:00 +13°C° 0 mm 1 m/s 741 mmHg 75%
21:00 +13°C° 0 mm 1 m/s 742 mmHg 77%
22:00 +12°C° 0 mm 1 m/s 742 mmHg 79%
23:00 +12°C° 0 mm 1 m/s 742 mmHg 81%

29 Septembrie, Marţi

Timp Temperatura Precipitaţii Vânt Presiune Umiditate
00:00 +12°C° 0 mm 1 m/s 742 mmHg 82%
01:00 +11°C° 0 mm 0 m/s 742 mmHg 83%
02:00 +12°C° 0 mm 1 m/s 742 mmHg 84%
03:00 +11°C° 0 mm 1 m/s 742 mmHg 84%
04:00 +11°C° 0 mm 1 m/s 742 mmHg 84%
05:00 +10°C° 0 mm 2 m/s 742 mmHg 85%
06:00 +10°C° 0 mm 2 m/s 742 mmHg 85%
07:00 +10°C° 0 mm 2 m/s 742 mmHg 85%
08:00 +12°C° 0 mm 2 m/s 742 mmHg 81%
09:00 +13°C° 0 mm 2 m/s 742 mmHg 78%
10:00 +14°C° 0 mm 2 m/s 742 mmHg 74%
11:00 +15°C° 0 mm 2 m/s 742 mmHg 72%
12:00 +15°C° 0 mm 2 m/s 742 mmHg 70%
13:00 +16°C° 0 mm 2 m/s 742 mmHg 68%
14:00 +16°C° 0 mm 2 m/s 742 mmHg 69%
15:00 +16°C° 0 mm 2 m/s 742 mmHg 70%
16:00 +16°C° 0 mm 2 m/s 742 mmHg 71%
17:00 +15°C° 0 mm 2 m/s 743 mmHg 73%
18:00 +14°C° 0 mm 2 m/s 743 mmHg 76%
19:00 +14°C° 0 mm 2 m/s 743 mmHg 78%
20:00 +13°C° 0 mm 2 m/s 743 mmHg 80%
21:00 +13°C° 0 mm 2 m/s 743 mmHg 82%
22:00 +13°C° 0 mm 2 m/s 743 mmHg 84%
23:00 +13°C° 0 mm 2 m/s 743 mmHg 84%

30 Septembrie, Miercuri

Timp Temperatura Precipitaţii Vânt Presiune Umiditate
00:00 +13°C° 0 mm 2 m/s 743 mmHg 85%
01:00 +12°C° 0 mm 3 m/s 743 mmHg 85%
02:00 +12°C° 0.1 mm 3 m/s 743 mmHg 87%
03:00 +12°C° 0.1 mm 3 m/s 743 mmHg 89%
04:00 +12°C° 0.1 mm 3 m/s 743 mmHg 91%
05:00 +12°C° 0 mm 3 m/s 743 mmHg 91%
06:00 +12°C° 0 mm 3 m/s 742 mmHg 91%
07:00 +12°C° 0 mm 3 m/s 742 mmHg 91%
08:00 +13°C° 0 mm 3 m/s 742 mmHg 90%
09:00 +13°C° 0 mm 3 m/s 742 mmHg 89%
10:00 +13°C° 0 mm 3 m/s 742 mmHg 88%
11:00 +14°C° 0.1 mm 3 m/s 742 mmHg 84%
12:00 +16°C° 0.1 mm 3 m/s 742 mmHg 81%
13:00 +16°C° 0.1 mm 3 m/s 742 mmHg 77%
14:00 +16°C° 0.1 mm 3 m/s 741 mmHg 77%
15:00 +16°C° 0.1 mm 3 m/s 741 mmHg 78%
16:00 +16°C° 0.1 mm 3 m/s 741 mmHg 78%
17:00 +14°C° 0 mm 3 m/s 741 mmHg 81%
18:00 +14°C° 0 mm 3 m/s 741 mmHg 84%
19:00 +13°C° 0 mm 3 m/s 741 mmHg 87%
20:00 +13°C° 0 mm 3 m/s 740 mmHg 88%
21:00 +13°C° 0 mm 3 m/s 740 mmHg 88%
22:00 +13°C° 0 mm 3 m/s 740 mmHg 89%
23:00 +12°C° 0.1 mm 3 m/s 739 mmHg 91%

1 Octombrie, Joi

Timp Temperatura Precipitaţii Vânt Presiune Umiditate
00:00 +12°C° 0.1 mm 3 m/s 739 mmHg 93%
01:00 +13°C° 0.1 mm 2 m/s 738 mmHg 95%
02:00 +13°C° 0.2 mm 2 m/s 738 mmHg 95%
03:00 +13°C° 0.2 mm 2 m/s 738 mmHg 95%
04:00 +13°C° 0.2 mm 2 m/s 738 mmHg 96%
05:00 +13°C° 0.7 mm 2 m/s 737 mmHg 96%
06:00 +13°C° 0.7 mm 2 m/s 737 mmHg 96%
07:00 +13°C° 0.7 mm 2 m/s 737 mmHg 96%
08:00 +13°C° 0.7 mm 2 m/s 737 mmHg 95%
09:00 +13°C° 0.7 mm 2 m/s 736 mmHg 95%
10:00 +13°C° 0.7 mm 2 m/s 736 mmHg 95%
11:00 +13°C° 0.7 mm 1 m/s 736 mmHg 94%
12:00 +13°C° 0.7 mm 1 m/s 735 mmHg 94%
13:00 +13°C° 0.7 mm 1 m/s 735 mmHg 94%
14:00 +13°C° 0.8 mm 1 m/s 735 mmHg 94%
15:00 +13°C° 0.8 mm 1 m/s 735 mmHg 95%
16:00 +13°C° 0.8 mm 1 m/s 735 mmHg 95%
17:00 +13°C° 0.3 mm 1 m/s 735 mmHg 95%
18:00 +13°C° 0.3 mm 2 m/s 735 mmHg 95%
19:00 +13°C° 0.3 mm 2 m/s 735 mmHg 94%
20:00 +13°C° 0.1 mm 2 m/s 735 mmHg 93%
21:00 +12°C° 0.1 mm 3 m/s 735 mmHg 92%
22:00 +12°C° 0.1 mm 3 m/s 735 mmHg 90%
23:00 +12°C° 0 mm 3 m/s 735 mmHg 90%
Arată mai mult